Location: Consuma
(43.7833°N, 11.5833°E)
Time: 21:25:12
(UTC+00:00)

Cosmos 1943 Rocket - Pass Details

Date: 17 February 2020
Orbit: 814 x 842 km, 71.0° (Epoch: 29 March)

Event Time Altitude Azimuth Distance (km) Brightness Sun altitude
Exits shadow 04:31:30 - 333° (NNW) 2,906 4.7 -18.5°
Reaches altitude 10° 04:32:47 10° 332° (NNW) 2,412 4.3 -18.3°
Maximum altitude 04:38:18 77° 248° (WSW) 837 2.0 -17.3°
Drops below altitude 10° 04:43:46 10° 163° (SSE) 2,397 4.8 -16.3°
Sets 04:46:11 0° 161° (SSE) 3,327 5.6 -15.9°
